, MS

(GMT )
Nakika

Weather History for KIKT - April, 2014

Change the Weather History Date:

Tuesday, April 29, 2014

  Actual Average Record
Temperature  
Mean Temperature 74 °F -  
Max Temperature 78 °F - - ()
Min Temperature 71 °F - - ()
Cooling Degree Days 10    
Growing Degree Days 24 (Base 50)    
Moisture  
Dew Point 74 °F    
Average Humidity 92    
Maximum Humidity 94    
Minimum Humidity 83    
Precipitation  
Precipitation 0.00 in - - ()
Sea Level Pressure  
Sea Level Pressure 29.76 in    
Wind  
Wind Speed 14 mph (SSE)    
Max Wind Speed 25 mph    
Max Gust Speed 32 mph    
Visibility 4 miles    
Events      
Averages and records for this station are not official NWS values.
T = Trace of Precipitation, MM = Missing Value Source: NWS Daily Summary

Daily Weather History Graph

Daily Weather History Graph

Search for Another Location

Airport or City:

Trip Planner

Search our weather history database for the weather conditions in past years. The results will help you decide how hot, cold, wet, or windy it might be!

Date:

Astronomy

Apr. 29, 2014 Rise Set
Actual Time 6:14 AM CDT 7:27 PM CDT
Civil Twilight 5:49 AM CDT 7:52 PM CDT
Nautical Twilight 5:19 AM CDT 8:21 PM CDT
Astronomical Twilight 4:49 AM CDT 8:52 PM CDT
Moon 6:31 AM CDT (4/29) 8:05 PM CDT (4/29)
Length of Visible Light 14h 02m
Length of Day
13h 12m
New Moon, 0% of the Moon is Illuminated
Apr 29
New Moon
May 6
First Quarter
May 14
Full
May 21
Last Quarter
May 28
New

Hourly Weather History & Observations

Time (CDT) Temp. Dew Point Humidity Pressure Visibility Wind Dir Wind Speed Gust Speed Precip Events Conditions
12:15 AM 77.0 °F 75.2 °F 94% 29.74 in 5.0 mi Variable 12.7 mph 24.2 mph N/A   Clear
12:35 AM 77.0 °F 75.2 °F 94% 29.73 in 5.0 mi Variable 13.8 mph 25.3 mph N/A   Clear
12:55 AM 77.0 °F 75.2 °F 94% 29.72 in 5.0 mi SSW 16.1 mph 27.6 mph N/A   Clear
1:15 AM 77.0 °F 75.2 °F 94% 29.72 in 5.0 mi SSW 18.4 mph 29.9 mph N/A   Clear
1:35 AM 77.0 °F 75.2 °F 94% 29.71 in 5.0 mi SSW 17.3 mph 27.6 mph N/A   Clear
1:55 AM 77.0 °F 75.2 °F 94% 29.71 in 5.0 mi Variable 13.8 mph 28.8 mph N/A   Clear
2:15 AM 77.0 °F 75.2 °F 94% 29.70 in 4.0 mi SSW 18.4 mph 28.8 mph N/A   Clear
2:35 AM 77.0 °F 75.2 °F 94% 29.70 in 5.0 mi SSW 17.3 mph 27.6 mph N/A   Clear
2:55 AM 77.0 °F 75.2 °F 94% 29.70 in 4.0 mi SSW 10.4 mph 23.0 mph N/A   Partly Cloudy
3:15 AM 77.0 °F 75.2 °F 94% 29.70 in 4.0 mi SSW 10.4 mph 21.9 mph N/A   Clear
3:35 AM 77.0 °F 75.2 °F 94% 29.70 in 5.0 mi SSW 9.2 mph 23.0 mph N/A   Clear
4:15 AM 77.0 °F 75.2 °F 94% 29.71 in 5.0 mi Variable 4.6 mph 16.1 mph N/A   Clear
4:35 AM 77.0 °F 75.2 °F 94% 29.71 in 5.0 mi SSW 11.5 mph 24.2 mph N/A   Partly Cloudy
4:55 AM 77.0 °F 75.2 °F 94% 29.71 in 5.0 mi SSW 16.1 mph 25.3 mph N/A   Mostly Cloudy
5:15 AM 77.0 °F 75.2 °F 94% 29.71 in 5.0 mi SSW 18.4 mph 29.9 mph N/A   Mostly Cloudy
5:35 AM 77.0 °F 75.2 °F 94% 29.71 in 5.0 mi SSW 19.6 mph 28.8 mph N/A   Partly Cloudy
5:55 AM 77.0 °F 75.2 °F 94% 29.72 in 5.0 mi SSW 17.3 mph 25.3 mph N/A   Partly Cloudy
6:15 AM 77.0 °F 75.2 °F 94% 29.73 in 5.0 mi SSW 9.2 mph 23.0 mph N/A   Scattered Clouds
6:35 AM 77.0 °F 75.2 °F 94% 29.74 in 3.0 mi Variable 4.6 mph 13.8 mph N/A   Mostly Cloudy
6:55 AM 77.0 °F 75.2 °F 94% 29.74 in 3.0 mi Variable 4.6 mph 15.0 mph N/A   Mostly Cloudy
7:15 AM 77.0 °F 75.2 °F 94% 29.75 in 3.0 mi Variable 5.8 mph 13.8 mph N/A   Scattered Clouds
7:55 AM 77.0 °F 75.2 °F 94% 29.77 in 3.0 mi SSW 11.5 mph 20.7 mph N/A   Scattered Clouds
8:15 AM 77.0 °F 75.2 °F 94% 29.77 in 3.0 mi SSW 13.8 mph 20.7 mph N/A   Partly Cloudy
8:35 AM 77.0 °F 75.2 °F 94% 29.78 in 3.0 mi South 9.2 mph - N/A   Mostly Cloudy
8:55 AM 77.0 °F 75.2 °F 94% 29.77 in 3.0 mi Variable 6.9 mph 13.8 mph N/A   Mostly Cloudy
9:15 AM 77.0 °F 75.2 °F 94% 29.77 in 3.0 mi Variable 6.9 mph 19.6 mph N/A   Mostly Cloudy
9:35 AM 77.0 °F 75.2 °F 94% 29.78 in 3.0 mi South 10.4 mph 18.4 mph N/A   Mostly Cloudy
9:55 AM 77.0 °F 75.2 °F 94% 29.78 in 3.0 mi South 8.1 mph 15.0 mph N/A   Scattered Clouds
10:15 AM 78.8 °F 75.2 °F 89% 29.79 in 3.0 mi SSE 10.4 mph 17.3 mph N/A   Partly Cloudy
10:35 AM 78.8 °F 75.2 °F 89% 29.79 in 3.0 mi SSE 10.4 mph - N/A   Haze
10:55 AM 78.8 °F 75.2 °F 89% 29.80 in 3.0 mi ESE 13.8 mph - N/A   Haze
11:15 AM 78.8 °F 75.2 °F 89% 29.81 in 3.0 mi East 16.1 mph - N/A   Scattered Clouds
11:35 AM 75.2 °F 73.4 °F 94% 29.81 in 4.0 mi East 23.0 mph - N/A   Mostly Cloudy
11:55 AM 73.4 °F 69.8 °F 88% 29.81 in 5.0 mi East 23.0 mph 32.2 mph N/A   Mostly Cloudy
12:15 PM 71.6 °F 68.0 °F 88% 29.82 in 6.0 mi East 24.2 mph 32.2 mph N/A   Overcast
12:35 PM 71.6 °F 68.0 °F 88% 29.81 in 4.0 mi East 25.3 mph - N/A   Overcast
12:55 PM 73.4 °F 68.0 °F 83% 29.81 in 5.0 mi East 24.2 mph - N/A   Overcast
1:15 PM 73.4 °F 68.0 °F 83% 29.81 in 6.0 mi East 23.0 mph - N/A   Haze
1:35 PM 73.4 °F 69.8 °F 88% 29.81 in 7.0 mi East 19.6 mph - N/A   Scattered Clouds
1:55 PM 75.2 °F 69.8 °F 83% 29.81 in 7.0 mi East 20.7 mph - N/A   Partly Cloudy
2:15 PM 75.2 °F 69.8 °F 83% 29.80 in 7.0 mi East 20.7 mph - N/A   Clear
2:35 PM 75.2 °F 69.8 °F 83% 29.79 in 6.0 mi ESE 20.7 mph - N/A   Haze
2:55 PM 75.2 °F 71.6 °F 89% 29.79 in 6.0 mi ESE 16.1 mph - N/A   Haze
3:15 PM 75.2 °F 71.6 °F 89% 29.78 in 5.0 mi SE 17.3 mph - N/A   Haze
3:35 PM 77.0 °F 71.6 °F 83% 29.77 in 5.0 mi SE 16.1 mph - N/A   Haze
3:55 PM 77.0 °F 73.4 °F 89% 29.77 in 4.0 mi SE 17.3 mph - N/A   Clear
4:15 PM 77.0 °F 73.4 °F 89% 29.76 in 4.0 mi SSE 12.7 mph 20.7 mph N/A   Clear
4:35 PM 77.0 °F 73.4 °F 89% 29.77 in 3.0 mi SSE 11.5 mph 18.4 mph N/A   Clear
4:55 PM 77.0 °F 75.2 °F 94% 29.76 in 3.0 mi SSE 12.7 mph - N/A   Clear
5:15 PM 77.0 °F 75.2 °F 94% 29.76 in 3.0 mi Variable 6.9 mph 21.9 mph N/A   Clear
5:35 PM 77.0 °F 75.2 °F 94% 29.76 in 3.0 mi Variable 8.1 mph 24.2 mph N/A   Clear
5:55 PM 78.8 °F 75.2 °F 89% 29.77 in 3.0 mi Variable 5.8 mph 24.2 mph N/A   Clear
6:15 PM 77.0 °F 75.2 °F 94% 29.77 in 3.0 mi South 10.4 mph 16.1 mph N/A   Clear
6:35 PM 77.0 °F 75.2 °F 94% 29.77 in 3.0 mi South 10.4 mph 20.7 mph N/A   Clear
6:55 PM 77.0 °F 75.2 °F 94% 29.78 in 3.0 mi Variable 8.1 mph 13.8 mph N/A   Clear
7:15 PM 77.0 °F 75.2 °F 94% 29.77 in 3.0 mi South 9.2 mph - N/A   Clear
7:55 PM 77.0 °F 75.2 °F 94% 29.77 in 4.0 mi Variable 10.4 mph 23.0 mph N/A   Mostly Cloudy
8:15 PM 77.0 °F 75.2 °F 94% 29.77 in 4.0 mi Variable 10.4 mph 23.0 mph N/A   Overcast
8:35 PM 77.0 °F 75.2 °F 94% 29.78 in 4.0 mi Variable 13.8 mph 27.6 mph N/A   Overcast
8:55 PM 78.8 °F 75.2 °F 89% 29.78 in 4.0 mi SSW 19.6 mph 28.8 mph N/A   Overcast
9:15 PM 78.8 °F 75.2 °F 89% 29.78 in 4.0 mi South 17.3 mph 26.5 mph N/A   Overcast
9:35 PM 77.0 °F 75.2 °F 94% 29.78 in 4.0 mi SSW 16.1 mph 24.2 mph N/A   Overcast
9:55 PM 77.0 °F 75.2 °F 94% 29.79 in 4.0 mi SSW 16.1 mph 23.0 mph N/A   Partly Cloudy
10:15 PM 77.0 °F 75.2 °F 94% 29.79 in 4.0 mi SSW 18.4 mph 26.5 mph N/A   Clear
10:35 PM 77.0 °F 75.2 °F 94% 29.79 in 4.0 mi SSW 17.3 mph 24.2 mph N/A   Clear
10:55 PM 77.0 °F 75.2 °F 94% 29.79 in 4.0 mi Variable 5.8 mph 23.0 mph N/A   Mostly Cloudy
11:15 PM 77.0 °F 75.2 °F 94% 29.79 in 4.0 mi Variable 5.8 mph 16.1 mph N/A   Overcast
11:35 PM 77.0 °F 75.2 °F 94% 29.80 in 4.0 mi Variable 5.8 mph 16.1 mph N/A   Overcast
11:55 PM 77.0 °F 75.2 °F 94% 29.80 in 4.0 mi Variable 5.8 mph 12.7 mph N/A   Overcast